Mitchell, SD

6:31 PM CDT on September 22, 2019 (GMT -0500)
Mitchell Municipal

Weather History for KMHE - July, 2019

Change the Weather History Date:

Saturday, July 27, 2019

  Actual Average Record
Temperature  
Mean Temperature 78 °F 74 °F  
Max Temperature 92 °F 86 °F 111 °F (1935)
Min Temperature 64 °F 63 °F 45 °F (2013)
Degree Days  
Heating Degree Days 0 0  
Month to date heating degree days 0 0  
Since 1 June heating degree days 16 35  
Since 1 July heating degree days 0 0  
Cooling Degree Days 13 10  
Month to date cooling degree days 341 268  
Year to date cooling degree days 552 478  
Since 1 June cooling degree days 533 438  
Growing Degree Days 28 (Base 50)    
Moisture  
Dew Point 61 °F    
Average Humidity 62    
Maximum Humidity 93    
Minimum Humidity 30    
Precipitation  
Precipitation 0.00 in 0.09 in 1.81 in (1963)
Month to date precipitation 4.38 2.73  
Year to date precipitation 18.84 13.59  
Snow  
Snow 0.00 in - 0.00 in ()
Month to date snowfall 0.0  
Since 1 June snowfall 0.0  
Since 1 July snowfall 0.0  
Snow Depth 0.00 in    
Sea Level Pressure  
Sea Level Pressure 30.00 in    
Wind  
Wind Speed 5 mph (ESE)    
Max Wind Speed 10 mph    
Max Gust Speed 14 mph    
Visibility 10 miles    
Events      
T = Trace of Precipitation, MM = Missing Value Source: NWS Daily Summary

Daily Weather History Graph

Daily Weather History Graph

Search for Another Location

Airport or City:

Astronomy

Jul. 27, 2019 Rise Set
Actual Time 6:15 AM CDT 9:01 PM CDT
Civil Twilight 5:42 AM CDT 9:34 PM CDT
Nautical Twilight 4:59 AM CDT 10:16 PM CDT
Astronomical Twilight 4:10 AM CDT 11:05 PM CDT
Moon 2:03 AM CDT (7/27) 4:53 PM CDT (7/27)
Length of Visible Light 15h 52m
Length of Day
14h 45m
Waning Crescent, 24% of the Moon is Illuminated
Jul 27
Waning Crescent
Jul 31
New
Aug 7
First Quarter
Aug 15
Full
Aug 23
Last Quarter

Hourly Weather History & Observations

Time (CDT) Temp. Heat Index Dew Point Humidity Pressure Visibility Wind Dir Wind Speed Gust Speed Precip Events Conditions
12:53 AM 72.0 °F - 63.0 °F 73% 29.99 in 10.0 mi North 5.8 mph - N/A   Clear
1:53 AM 71.1 °F - 63.0 °F 75% 29.99 in 10.0 mi Calm Calm - N/A   Clear
2:53 AM 68.0 °F - 62.1 °F 81% 29.98 in 10.0 mi WNW 3.5 mph - N/A   Clear
3:53 AM 66.9 °F - 62.1 °F 84% 29.99 in 10.0 mi Calm Calm - N/A   Clear
4:53 AM 64.9 °F - 62.1 °F 90% 30.02 in 10.0 mi SSW 4.6 mph - N/A   Clear
5:53 AM 64.9 °F - 62.1 °F 90% 30.02 in 10.0 mi Calm Calm - N/A   Clear
6:53 AM 64.9 °F - 61.0 °F 87% 30.02 in 10.0 mi WNW 5.8 mph - N/A   Clear
7:53 AM 69.1 °F - 63.0 °F 81% 30.03 in 10.0 mi Calm Calm - N/A   Clear
8:53 AM 75.9 °F - 62.1 °F 62% 30.04 in 10.0 mi Calm Calm - N/A   Clear
9:53 AM 79.0 °F - 63.0 °F 58% 30.04 in 10.0 mi ENE 4.6 mph - N/A   Clear
10:53 AM 82.9 °F 83.3 °F 61.0 °F 47% 30.03 in 10.0 mi East 8.1 mph - N/A   Clear
11:53 AM 86.0 °F 86.1 °F 61.0 °F 43% 30.03 in 10.0 mi SE 4.6 mph - N/A   Clear
1:53 PM 90.0 °F 88.6 °F 57.0 °F 33% 30.01 in 10.0 mi Variable 4.6 mph - N/A   Clear
2:53 PM 91.0 °F 89.7 °F 57.0 °F 32% 30.00 in 10.0 mi Variable 4.6 mph - N/A   Clear
3:53 PM 91.0 °F 89.2 °F 55.9 °F 30% 29.99 in 10.0 mi SE 5.8 mph - N/A   Clear
4:53 PM 90.0 °F 88.8 °F 57.9 °F 34% 29.98 in 10.0 mi South 3.5 mph - N/A   Clear
5:53 PM 89.1 °F 89.3 °F 62.1 °F 40% 29.97 in 10.0 mi ESE 4.6 mph - N/A   Clear
6:53 PM 90.0 °F 88.8 °F 57.9 °F 34% 29.96 in 10.0 mi SE 10.4 mph - N/A   Partly Cloudy
7:53 PM 86.0 °F 86.8 °F 63.0 °F 46% 29.95 in 10.0 mi ESE 8.1 mph - N/A   Clear
8:53 PM 80.1 °F 82.1 °F 66.0 °F 62% 29.93 in 10.0 mi ESE 6.9 mph - N/A   Clear
9:53 PM 78.1 °F - 64.9 °F 64% 29.94 in 10.0 mi SE 8.1 mph - N/A   Clear